FENGYUN 1C DEB, 29773

Orbit data source: Space-Track

FENGYUN 1C DEB, 29773 is space debris in SSO originally from a launch on Mon, 10 May 1999 UTC launched from the Taiyaun Space Center, China (TSC). Fengyun 1C debris stems from the Chinese weather satellite Fengyun-1C, which was intentionally destroyed by a Chinese anti-satellite missile in 2007. This event dramatically increased the amount of space debris, with thousands of trackable fragments posing hazards to satellites and human spaceflight. The Fengyun 1C debris cloud has become a focal point in discussions about space sustainability and the need for international regulations to prevent the creation of new debris.

Loading next visibility...
Identifier
29773, 1999-025BP
Orbit
SSO
Country
Flag of CNCN / PRC
Related business
Manufacturer
Unknown
Mission
Spacecraft
Bus & Motor
Unknown
Mass
Unknown
Launch date (UTC)
1999-05-10 (27 years ago)
Launch vehicle
Unknown
Launch site
Taiyaun Space Center, China (TSC)
Object type
Payload
Rocket body
Debris
Shape & HBR
Unknown shape, 0.1 m
Radar Cross Section
Medium (>0.1 m² and <1 m²)

Expand to show TLE details & history
Last TLE update: 21 hours ago

TLE from 21 hours ago
0 FENGYUN 1C DEB
1 29773U 99025BP  26235.46076816  .00000522  00000-0  22728-3 0  9992
2 29773  99.0184  41.7557 0046064 277.2009 105.1900 14.27997048 18171
Epoch: 2026-08-23T11:03Z
TLE epoch observation values (Epoch: 2026-08-23T11:03:30.369Z)
Latitude
22.61835°
Longitude
-99.6487°
Altitude
809.986 km
Speed
7.446 km/s
True Right ascension
02h 31m 56s
True Declination
22° 29' 51"
Sunlit
Object was in daylight at epoch
Visualization orbit readout
Latitude
Unknown
Longitude
Unknown
Altitude
Unknown
Speed
Unknown
Apparent Right ascension
Unknown
Apparent Declination
Unknown
Sunlit
N/A
Visualization observer readout
Local Sidereal Time
22:44:33
Azimuth
Unknown
Elevation
Unknown
Doppler factor
Unknown
Orbital elements
Apogee altitude
828.642 km
Perigee altitude
762.552 km
Semi-major axis
7,173.734 km
Eccentricity
0.00461
Inclination
99.0184°
RAAN
41.7557°
Arg. of periapsis
277.2009°
True anomaly
105.69864°
Mean anomaly
105.19°
Eccentric anomaly
105.4444°
Mean motion
3.57211 °/min
Orbital period
100.78 mins
BSTAR
0.00022728
Loading maneuver chart data...
Computing Atmospheric mass density...

Documentation

Showing up to 5 results
|